星链-35015 (STARLINK-35015)

导读

STARLINK-35015是美国太空探索技术公司SpaceX星链互联网卫星星座的一员,于2025年8月22日由美国发射升空,属于低轨通信卫星。星链项目旨在构建全球卫星互联网覆盖网络,该卫星入轨后,将和其他星链卫星协同,为全球偏远地区、海洋空域等提供高速低延迟的互联网接入服务。

Basic Information
目录编号:
65283
目录名称:
STARLINK-35015
国际标识:
2025-184L
轨道中心:
EARTH
卫星名称:
星链-35015
卫星全名:
星链-35015 (STARLINK-35015)
卫星状态:
在轨 (已飞行295 天)
发射日期:
2025-08-22 UTC
国别 :
美国 (US)
星等 :
--
Orbit Information
数据来源 国际轨道数据 AOE轨道数据
星历时间 2026-06-13T10:30:24+0800
15小时前
查看轨道信息
2026-06-11T00:00:00+0800
3天前
查看轨道信息
半长轴 6927.716km 6927.538km
偏心率 0.000062 0.0002148
轨道倾角 97.369° 97.381°
近地点辐角 75.489° 119.056°
升交点赤经 215.796° 213.468°
平近点角 284.641° 355.943°
近地点 549.149km 547.912km
远地点 550.009km 550.89km
周期 95.641分钟 95.637分钟
每日圈数 15.056279 15.05686
Detailed Information
固有亮度:
5
最大亮度:
2.5
卫星平台:
Starlink V1.0
覆盖范围:
全球
运营商:
太空探索技术公司
运营商所在国:
美国
制造商(研发单位):
太空探索技术公司
制造商所在国:
美国
使用方式:
暂无
Satellite Introduction
Starlink 计划是 SpaceX 推出的全球卫星互联网项目,通过发射低轨道卫星,为全球尤其是偏远地区提供高速、低延迟的互联网服务。自 2019 年起,Starlink 已部署数千颗卫星,旨在缩小全球数字鸿沟,推动互联网普及。该项目还为军事、航空等行业提供通信支持,带来广泛经济效益。
2D Orbit Map
3D Orbit Map
Orbit Altitude Analysis Chart
Orbit Inclination Analysis Chart
Orbit Comprehensive Analysis Chart
View Comprehensive Chart